Theta_e
329 331 334 339 331 327 329 325 319 321 317 316 316 317 318 319 322 322 322 320 319 320 319 318 316 318 316 312 316 317 314 312 315 316 318 317 315 316 316 316 316 316 316 315 315 314 313 313 313
329 332 333 334 329 330 328 322 321 316 316 315 315 315 315 317 320 320 320 319 319 319 316 311 317 313 315 305 315 310 309 314 313 314 316 316 316 316 315 315 316 315 313 313 313 313 312 312 312
330 334 331 324 324 330 329 320 316 315 316 315 314 314 315 316 317 320 318 318 317 316 310 306 310 310 311 306 306 304 302 303 303 314 314 314 315 314 315 315 315 312 313 311 312 312 311 310 311
331 332 328 324 327 324 324 318 316 314 314 315 315 313 315 315 317 317 316 316 315 312 306 307 308 311 306 313 302 301 301 300 300 311 311 313 312 312 311 312 311 312 311 310 310 311 311 311 311
331 330 323 324 324 321 318 317 316 315 315 314 314 313 315 314 314 314 314 314 312 309 305 306 305 309 309 311 301 301 301 300 300 303 302 304 308 306 305 308 309 308 310 311 310 311 312 311 310
331 326 326 326 324 321 318 317 316 315 314 314 314 313 314 314 313 313 313 312 311 308 305 305 306 306 307 308 301 300 300 300 300 300 300 300 300 300 300 300 301 302 306 310 310 310 310 310 306
327 323 326 323 323 321 319 317 315 314 314 315 315 311 313 313 313 312 313 311 309 306 305 304 303 304 305 305 301 300 300 300 300 300 300 300 300 300 300 300 300 301 304 307 306 304 304 307 302
326 319 322 321 321 322 317 317 317 315 314 315 314 312 313 313 313 312 312 311 308 306 305 305 303 301 302 303 301 300 300 300 300 300 300 300 300 300 301 300 300 300 302 302 302 301 301 300 300
326 320 321 322 321 321 317 317 316 315 315 315 314 314 314 314 313 312 312 310 307 306 305 304 304 301 301 302 302 300 300 300 300 300 300 300 301 301 301 300 300 300 300 301 301 301 301 301 300
322 319 321 319 320 319 318 318 317 315 314 314 314 314 314 313 313 311 310 309 307 306 305 303 304 302 301 302 302 301 300 300 300 300 300 300 300 300 300 300 300 300 300 301 301 301 301 301 301
318 320 319 319 319 320 319 318 317 315 313 316 316 315 314 313 313 312 310 309 307 306 305 303 303 303 301 301 302 302 301 300 300 300 300 300 300 300 300 300 300 300 300 300 301 301 301 301 301
316 316 318 318 318 317 318 317 316 316 318 316 316 315 315 314 313 312 310 309 308 306 305 304 303 303 302 301 301 301 301 300 300 300 300 300 300 300 300 300 299 299 300 299 300 300 301 301 301
315 315 316 316 315 315 315 315 315 315 316 316 316 316 315 314 314 312 311 310 308 307 306 304 303 303 303 302 301 301 301 301 300 300 300 300 300 300 299 299 299 299 299 299 299 300 300 300 300
314 315 314 315 314 314 314 313 313 313 314 315 316 316 315 315 314 313 311 310 309 308 307 305 304 303 303 303 302 301 301 301 301 300 300 300 300 300 299 299 299 299 299 299 299 299 299 300 300
314 314 313 313 314 314 314 310 311 314 314 314 315 315 315 314 314 313 312 311 310 308 307 306 305 304 304 303 303 303 301 301 301 301 300 300 300 300 299 299 299 299 299 299 299 299 299 299 299
312 310 312 314 313 313 311 310 309 314 314 314 314 314 314 314 314 313 312 311 310 309 308 306 306 305 305 304 304 303 303 302 301 301 301 301 300 299 299 299 299 299 299 299 299 299 298 299 299
308 311 312 310 312 312 311 311 311 313 313 313 313 314 314 314 313 313 312 311 310 309 308 307 306 306 306 305 305 304 304 303 302 301 301 301 301 300 300 299 299 299 299 298 298 298 298 298 299
314 311 310 310 311 312 311 309 308 311 310 312 313 314 314 314 314 313 312 311 311 310 309 308 307 307 306 306 305 305 304 304 304 303 302 301 301 301 301 300 299 299 299 299 298 298 298 298 298
311 312 311 310 310 311 309 307 307 310 308 309 312 314 314 314 315 314 313 312 311 311 310 309 308 308 307 307 306 306 305 305 305 304 304 303 302 301 301 301 300 300 300 299 298 298 298 298 298
312 312 311 309 309 310 308 309 308 310 311 311 312 312 314 314 315 314 314 313 312 312 311 310 310 309 308 308 307 307 306 306 305 305 305 304 304 303 302 301 301 300 300 300 299 299 298 298 298
311 311 311 311 309 309 307 311 309 311 311 312 312 312 312 314 314 315 314 314 313 313 312 312 310 310 309 309 308 308 307 307 307 307 306 305 305 304 303 303 302 301 301 300 300 299 299 298 298
312 310 311 311 309 310 308 312 312 311 308 311 313 313 313 314 315 315 315 314 314 313 313 312 311 310 310 310 309 309 308 308 309 308 307 306 305 305 304 304 303 303 302 301 301 300 299 299 298
310 309 309 311 311 311 311 310 311 309 314 313 313 314 313 313 314 315 315 314 314 314 313 313 312 311 311 311 310 310 309 309 309 309 308 308 307 306 305 305 305 304 303 303 302 301 300 300 299
309 312 312 311 312 315 313 310 311 312 314 313 313 314 314 314 313 314 315 314 314 313 313 313 312 312 312 312 312 311 311 311 310 310 309 309 308 307 306 306 305 305 305 304 303 302 302 301 300
310 311 315 319 317 318 312 311 311 312 311 313 313 314 315 314 313 313 313 314 314 313 313 313 313 313 313 313 313 313 313 312 311 311 310 310 309 309 308 307 306 306 305 305 304 303 303 302 301
309 311 314 319 315 313 311 313 314 309 312 314 314 314 316 316 315 314 314 314 313 313 313 314 314 314 313 313 313 313 313 313 312 312 312 311 310 310 309 308 307 306 306 305 305 304 304 303 302
310 312 309 311 311 312 312 313 312 311 311 312 313 315 317 317 317 316 316 315 315 315 314 314 314 314 314 313 313 313 313 313 313 312 312 311 310 309 309 308 308 307 306 305 305 304 304 304 303
309 308 312 310 318 320 313 313 316 313 310 309 311 315 317 317 317 317 317 316 316 315 315 314 314 314 314 314 314 314 314 313 313 313 312 311 309 309 308 308 308 307 307 306 305 305 305 304 304
307 308 308 309 310 315 317 317 310 311 309 308 311 316 317 316 317 316 315 315 315 315 315 315 314 314 314 313 314 314 314 313 313 312 312 309 308 308 308 308 308 307 307 307 306 306 305 305 304
307 307 308 313 313 308 310 315 312 309 310 312 313 316 317 316 317 317 314 314 316 317 316 315 315 315 314 313 313 313 313 313 312 312 310 309 309 309 308 308 308 308 307 307 306 306 306 305 305
Wind_Speed
8 9 8 3 4 5 1 1 0 1 2 2 4 5 4 4 2 3 12 9 10 10 8 7 4 6 2 1 5 3 2 5 6 8 10 10 11 10 10 11 12 12 13 14 14 14 14 16 14
8 8 3 3 5 3 3 1 2 0 7 7 5 4 4 1 3 6 12 11 11 9 7 5 6 4 4 2 3 2 2 6 4 8 8 8 10 9 10 11 11 12 13 14 14 14 14 16 15
7 6 3 4 3 2 2 2 4 4 9 3 2 4 2 2 3 10 4 11 11 8 5 6 6 3 3 3 1 3 3 4 5 8 5 8 8 10 12 12 12 12 13 14 15 14 14 15 14
5 3 5 4 2 1 1 4 5 8 2 2 5 3 2 2 6 7 9 10 9 7 5 6 5 5 3 3 2 2 3 4 5 6 5 8 8 9 10 11 11 12 12 12 12 14 14 15 12
3 3 4 4 1 1 0 5 8 3 4 4 2 2 1 6 5 6 10 9 7 5 4 5 4 4 4 3 2 2 2 3 5 5 4 6 6 8 9 10 10 11 11 12 11 13 13 11 12
3 3 4 2 1 1 1 6 5 4 5 4 2 5 3 7 5 5 9 8 6 3 4 4 5 4 4 3 1 1 1 3 4 4 4 4 5 6 7 8 9 10 11 11 10 11 11 11 11
5 4 3 3 3 1 4 9 5 6 4 4 4 4 2 8 9 7 9 9 7 6 5 6 6 5 4 3 1 0 0 1 2 3 2 2 4 5 5 6 6 7 9 8 9 9 9 10 11
4 5 3 1 3 3 6 8 3 7 5 3 5 2 2 6 11 12 13 11 10 8 7 7 7 6 5 4 1 1 1 1 1 2 1 0 1 2 3 3 4 5 5 6 7 8 9 9 10
3 4 2 5 5 2 9 3 4 3 4 7 6 6 5 5 13 15 17 16 14 12 10 9 7 6 5 5 4 3 2 3 3 3 2 2 2 2 2 2 3 4 5 5 6 8 7 8 9
4 3 7 4 3 2 7 5 7 4 5 7 10 11 9 9 15 15 17 16 15 13 11 9 8 7 6 6 5 4 4 4 4 4 4 3 3 3 3 4 4 4 5 5 5 5 7 7 8
2 3 3 2 1 2 5 2 5 5 4 12 11 13 11 13 16 16 15 14 10 10 12 10 9 8 7 7 7 5 4 4 5 5 5 5 5 5 5 5 5 5 5 5 6 5 6 7 8
3 3 2 1 1 2 2 2 3 12 10 6 7 9 12 14 16 15 15 14 13 13 11 11 10 10 9 9 7 7 6 6 6 6 6 6 6 6 6 7 7 7 6 6 6 6 6 7 7
3 1 1 1 2 3 4 6 7 15 13 17 10 11 12 14 13 13 14 14 14 15 12 12 12 11 10 9 9 8 8 7 7 7 8 7 7 7 7 7 8 8 8 8 8 8 8 8 8
1 1 1 2 1 2 2 3 2 3 4 17 16 14 13 14 13 15 16 15 16 14 14 13 13 11 12 10 10 9 10 10 9 9 10 10 9 9 9 9 9 9 10 10 10 10 10 10 10
2 3 4 2 1 1 1 4 7 9 9 10 16 15 15 15 18 17 13 14 13 13 13 15 13 12 12 11 10 10 11 12 12 12 12 12 11 11 11 10 10 10 11 11 11 11 11 11 11
4 4 3 1 2 1 2 7 4 5 8 11 14 16 16 16 16 17 16 15 15 15 16 14 15 14 13 11 10 11 12 14 14 14 15 14 14 14 14 13 12 13 13 13 13 13 12 12 13
6 1 2 6 2 1 2 7 5 3 6 13 14 15 16 16 18 16 16 16 15 15 16 16 17 16 13 12 12 13 14 16 15 16 17 15 16 16 16 15 14 15 15 14 15 14 15 14 14
3 2 3 4 4 1 3 12 11 15 14 19 16 16 17 18 16 13 14 15 15 16 16 17 18 17 15 15 17 17 18 17 17 16 17 17 17 18 18 18 17 17 17 16 16 17 17 17 17
2 1 2 4 1 3 3 8 13 11 6 15 19 20 20 20 14 14 14 14 16 17 18 18 18 16 18 19 20 20 19 18 18 17 17 18 19 19 20 19 19 19 19 17 18 18 18 18 18
1 1 4 4 1 1 5 11 6 4 4 5 12 18 21 21 18 16 16 17 17 15 15 16 16 17 17 18 18 21 21 22 22 20 20 20 20 20 21 21 20 21 21 20 19 19 20 19 17
1 2 1 3 6 0 6 7 6 3 4 4 6 8 11 14 16 17 17 17 17 17 15 13 11 12 13 15 17 20 23 26 24 21 20 18 19 19 21 21 21 22 22 22 21 20 20 20 20
2 2 1 2 3 2 3 3 5 4 8 3 4 4 4 4 7 12 15 14 14 10 13 13 11 11 12 14 19 21 24 27 23 21 20 21 22 22 23 23 23 24 23 24 22 22 22 22 22
3 2 1 1 2 2 2 3 7 4 3 3 4 4 4 2 3 7 11 8 9 11 11 11 12 12 12 15 18 23 27 29 28 27 25 24 24 24 25 25 25 26 26 26 24 24 24 24 24
5 3 4 3 2 2 1 3 5 3 4 2 3 4 4 4 3 1 6 8 8 11 12 13 13 13 14 16 19 23 27 28 31 31 30 28 27 27 28 27 27 27 28 27 26 26 27 26 26
4 4 3 2 3 5 2 2 8 4 5 5 2 4 4 4 3 2 1 6 7 10 12 14 15 14 15 17 19 21 23 28 30 30 31 31 29 29 28 28 29 29 28 27 27 28 29 29 29
5 5 5 4 4 3 1 5 5 6 4 7 4 2 3 4 4 3 2 2 4 8 11 14 16 17 18 20 20 22 24 25 27 27 27 27 26 24 24 26 30 30 30 29 29 30 30 31 32
3 3 3 6 3 2 3 7 8 5 5 7 7 4 2 1 3 2 2 3 4 5 8 11 15 18 20 22 24 25 27 27 27 26 27 27 25 24 23 23 26 28 29 30 30 32 32 33 33
2 4 3 2 4 4 4 5 5 6 9 7 8 8 4 2 1 2 3 4 5 6 9 12 15 19 21 24 25 27 27 26 26 26 25 25 23 22 23 22 23 25 26 28 30 32 33 34 35
2 1 4 3 3 4 1 6 7 10 10 11 16 11 6 4 3 1 2 2 2 3 4 6 10 14 16 17 20 22 22 22 23 23 22 22 21 20 21 22 22 23 25 26 30 32 33 35 35
3 6 6 4 5 1 3 6 3 7 12 16 17 13 8 8 6 3 4 3 2 3 4 6 9 11 13 14 15 16 17 19 20 21 21 21 20 19 19 20 21 22 23 24 27 30 32 34 35
Wind_Direction
343 350 353 342 51 64 72 334 153 42 48 41 82 85 122 82 130 197 148 155 152 165 181 195 132 200 136 122 83 85 21 54 68 64 43 44 52 49 52 53 47 47 49 47 44 45 47 48 48
341 357 1 62 79 53 291 269 100 16 136 101 68 47 49 86 112 151 153 152 146 165 188 205 169 179 159 127 117 252 46 74 57 68 52 47 53 52 47 51 51 47 45 49 46 47 49 48 51
343 9 29 84 101 146 214 179 135 105 146 43 104 58 81 121 156 161 163 160 153 169 186 182 202 147 153 106 65 55 57 63 72 70 61 54 53 50 49 50 50 50 49 50 50 48 45 50 45
353 34 60 77 78 278 256 156 134 126 140 197 132 71 89 150 139 162 169 165 159 170 178 178 177 182 156 121 69 63 63 52 52 68 60 63 54 57 52 54 51 52 49 48 52 44 42 49 46
13 63 60 70 10 313 278 150 146 136 146 162 172 187 203 171 156 164 168 164 162 176 191 200 187 180 154 201 65 81 76 61 55 54 45 59 53 52 55 53 51 49 53 47 48 49 53 47 51
70 71 67 159 218 3 156 164 150 148 158 172 163 155 200 190 172 166 169 169 172 208 223 210 197 190 178 186 116 79 57 50 47 45 49 45 42 46 47 44 43 42 44 49 49 52 51 51 38
106 78 135 139 171 299 198 167 176 171 176 226 184 143 227 206 185 176 176 189 198 213 218 215 208 202 197 199 173 154 43 40 36 35 51 62 44 38 38 36 38 35 34 35 38 35 44 43 26
92 93 103 138 176 256 174 162 216 176 205 205 186 214 244 211 190 182 190 201 212 220 219 211 217 217 216 221 234 285 293 298 21 39 59 69 54 49 40 34 24 19 13 13 12 8 13 18 17
86 65 146 188 152 238 163 158 174 201 176 189 215 237 248 217 198 193 198 207 213 217 218 218 222 223 228 232 247 282 283 297 323 350 351 342 352 16 20 22 20 5 1 359 356 358 0 5 13
74 98 203 183 190 207 187 195 184 174 196 227 236 236 240 224 208 208 210 213 218 220 222 223 226 230 237 241 253 270 283 295 300 307 311 311 313 336 344 349 354 355 352 346 348 348 348 354 360
91 140 177 173 164 208 185 215 185 190 236 238 243 241 229 217 213 219 221 224 231 233 230 232 233 236 242 246 252 264 277 275 273 279 290 294 298 311 318 324 331 335 342 340 336 339 340 344 346
83 93 134 161 206 158 189 207 235 225 240 260 272 246 227 217 221 224 223 225 224 230 235 236 236 240 246 248 255 260 274 273 273 274 281 286 288 297 304 311 317 320 324 326 321 324 327 330 335
72 160 144 203 215 230 230 244 246 259 259 248 252 236 233 228 229 229 229 232 233 235 239 241 243 243 249 256 260 267 272 278 276 279 279 277 280 283 291 296 299 304 307 312 312 312 317 318 320
51 145 314 238 232 236 244 270 304 270 274 233 234 239 239 236 235 229 229 230 235 239 240 243 248 249 250 257 264 271 273 278 278 279 279 277 283 284 284 287 291 296 301 304 305 305 307 311 314
65 360 337 245 259 311 336 277 236 267 270 230 227 231 233 235 231 237 246 246 248 249 248 246 248 248 251 259 265 272 275 274 278 279 278 282 283 284 283 282 283 286 290 292 297 296 297 300 303
51 50 14 299 160 4 73 278 258 289 241 239 229 229 233 233 240 241 241 244 243 244 244 246 245 246 250 257 267 273 274 274 275 276 277 280 282 285 285 286 286 283 285 286 287 290 290 291 294
12 252 313 332 210 38 107 272 278 286 276 257 243 237 239 238 240 240 239 242 241 244 243 242 245 248 254 261 268 273 274 273 274 272 274 279 281 282 282 283 283 282 282 283 284 288 288 287 288
264 341 319 271 331 314 275 272 281 296 263 248 248 245 244 245 247 244 242 240 240 240 240 241 241 247 250 255 259 264 269 275 278 280 281 280 281 281 281 280 280 281 281 284 286 286 289 291 291
116 98 276 277 345 304 261 279 286 313 272 243 242 243 246 250 252 242 236 235 236 238 239 239 241 244 246 251 259 267 276 280 281 283 284 280 279 279 280 280 277 277 280 282 281 284 286 288 294
58 338 287 286 340 9 342 298 283 294 285 255 250 249 251 253 251 241 237 235 238 243 246 243 243 242 247 254 265 271 278 278 279 278 279 282 282 280 280 280 279 276 276 276 278 281 284 287 292
236 203 252 244 330 2 324 310 336 294 310 281 273 270 265 258 248 233 233 238 243 246 249 253 250 247 250 257 263 268 274 278 283 289 291 294 291 286 283 281 278 276 274 274 274 275 281 285 283
267 173 124 335 33 233 19 253 298 310 315 297 328 313 315 258 226 216 224 232 241 248 256 252 249 251 253 258 264 271 275 278 292 294 293 288 284 284 281 280 278 276 274 272 275 274 275 275 278
191 95 112 88 88 32 331 81 266 351 336 305 321 1 11 12 242 223 223 230 236 236 235 243 246 248 255 264 271 275 279 286 291 291 290 287 286 284 282 279 277 275 273 273 273 271 272 274 273
139 95 51 63 76 17 334 117 284 210 201 274 310 358 18 20 24 205 213 223 227 227 224 230 241 248 259 271 278 284 288 293 292 293 291 289 285 283 280 279 279 278 275 273 272 272 271 272 272
82 64 355 12 8 217 346 42 242 237 226 211 273 6 34 28 23 19 260 237 234 237 240 242 248 254 265 275 284 294 301 296 298 299 295 291 287 282 280 279 278 278 278 276 273 270 270 269 270
182 157 158 208 200 252 289 232 242 210 213 222 234 273 48 41 26 22 355 287 258 246 245 250 259 266 273 277 286 289 292 296 297 301 300 294 289 284 277 274 272 271 271 271 270 268 267 267 266
185 190 175 103 12 26 244 289 297 224 253 217 223 202 144 10 334 319 301 284 272 269 272 272 273 278 279 283 283 286 290 292 297 299 296 292 291 290 283 274 268 268 268 267 267 265 265 266 265
178 166 80 14 170 244 280 274 236 208 217 224 227 208 204 286 285 259 256 260 269 274 277 282 287 291 291 289 289 290 290 289 290 291 293 294 294 291 287 280 274 271 268 266 264 264 263 263 263
135 234 53 121 133 166 241 263 211 207 195 197 211 203 209 202 170 136 153 136 66 9 338 329 322 320 315 306 298 293 291 287 285 290 295 296 294 293 287 284 279 275 271 266 263 263 263 261 262
185 197 160 127 210 134 149 274 228 224 211 200 201 196 206 194 194 182 163 139 66 9 350 341 337 339 338 334 323 311 301 295 295 298 297 295 294 292 292 288 284 281 276 271 267 267 265 265 264